星链-1895 (STARLINK-1895 )

导读 | 豆包AI

STARLINK-1895是美国太空探索技术公司SpaceX星链星座的V1.0版本卫星,于2020年11月25日发射入轨,运行在近地轨道,属于星链全球天基互联网星座的组网卫星。星链计划旨在搭建覆盖全球的低轨宽带卫星互联网,为偏远地区、移动场景提供高速网络服务,该卫星目前仍处于工作状态。

基本信息
目录编号:
47175
目录名称:
STARLINK-1895
国际标识:
2020-088BF
轨道中心:
EARTH
卫星名称:
星链-1895
卫星全名:
星链-1895 (STARLINK-1895 )
卫星状态:
已陨落 最后检测时间 2025-02-12
发射日期:
2020-11-25 UTC
国别 :
美国 (US)
星等 :
--
轨道信息
数据来源 国际轨道数据
星历时间: 2025-02-12T11:33:36+0800
轨道信息已过期395天
半长轴: 6535.795km
偏心率: 0.0005973
轨道倾角: 53.034°
近地点辐角 292.396°
升交点赤经 191.053°
平近点角 222.695°
近地点: 153.756km
远地点: 161.564km
周期: 87.641分钟
每日圈数: 16.430668
详细信息
固有亮度:
5
最大亮度:
2.5
卫星平台:
Starlink V1.0
覆盖范围:
全球
运营商:
太空探索技术公司
运营商所在国:
美国
制造商(研发单位):
太空探索技术公司
制造商所在国:
美国
使用方式:
暂无
卫星简介
星链(Starlink)计划是由太空探索技术公司(SpaceX)提出的一个巨型低轨卫星互联网星座项目,计划在2019年至2024年间在太空搭建由约1.2万颗卫星组成的“星链”网络,其中1584颗将部署在地球上空550千米处的近地轨道,并从2020年开始工作。该卫星仍在工作。